Location: *
(48.7149°N, 2.3164°E)
Time: 22:48:27
(UTC+00:00)

Daily predictions for brighter satellites

Satellite Brightness Start Highest point End
(mag) Time Altitude Azimuth Time Altitude Azimuth Time Altitude Azimuth
NOSS 3-2 (C) 3.2 16:23:32 10° SW 16:28:37 86° NW 16:34:46 10° NE
IRIDIUM 103 4.5 16:23:41 10° N 16:28:49 53° E 16:33:55 10° SSE
Okean 1-7 Rocket 3.6 16:27:47 10° N 16:32:06 57° ENE 16:36:24 10° SSE
Cosmos 1461 3.4 16:31:19 10° WSW 16:35:07 50° NW 16:38:59 10° NNE
Aureole 1 Rocket 4.4 16:32:21 10° SSE 16:36:27 29° E 16:41:23 10° NE
CZ-2D R/B 4.0 16:37:41 10° ESE 16:40:10 22° ENE 16:42:39 10° NNE
Cosmos 1953 Rocket 4.3 16:36:24 10° N 16:40:25 32° ENE 16:44:26 10° SE
NOSS 3 (A) 4.1 16:38:42 10° NW 16:41:02 62° NE 16:44:03 10° SE
ARIANE 5 R/B 2.9 16:36:41 10° SE 16:41:24 40° ENE 16:46:13 10° N
Cosmos 1076 Rocket 4.1 16:38:46 10° N 16:42:46 36° ENE 16:46:45 10° SE
Meteor 1-28 Rocket 2.9 16:41:51 10° NNE 16:45:09 58° E 16:48:26 10° S
Cosmos 1825 Rocket 3.5 16:42:39 10° N 16:46:57 60° ENE 16:51:11 10° SSE
IRIDIUM 106 4.3 16:41:56 10° N 16:47:11 76° E 16:52:24 10° S
Cosmos 2082 4.2 16:43:14 10° NNW 16:48:34 38° NE 16:53:53 10° ESE
Gbstr 26 Del rocket 2.7 16:45:36 10° WSW 16:49:51 89° SSE 16:53:17 12° ENE
Cosmos 2297 Rocket 3.9 16:45:38 10° NW 16:50:48 38° WSW 16:55:57 10° S
Cosmos 2098 Rocket 4.0 16:47:59 10° SSW 16:52:28 59° WNW 16:57:42 10° N
CENTAUR R/B 3.9 16:47:31 10° WNW 16:53:06 30° NNW 16:59:51 10° NE
SL-16 R/B 2.6 16:46:55 10° NNE 16:53:11 89° ESE 16:59:22 10° SSW
SMAP 3.1 16:50:27 10° SSE 16:55:02 63° ENE 16:59:40 10° N
NOSS 2-3 (C) 3.2 16:52:07 10° SSW 16:55:29 55° SE 16:58:36 13° NE
Landsat 7 3.9 16:54:00 10° SSE 16:58:31 54° ENE 17:03:04 10° N
Cosmos 1743 4.4 16:56:22 10° NNW 16:59:15 30° W 17:02:06 10° SSW
CBERS-1 4.3 16:54:56 10° S 17:00:02 73° WSW 17:05:10 10° NNW
IGS 5A 3.7 16:56:41 10° S 17:00:37 71° WSW 17:04:37 10° NNW
SL-16 R/B 3.9 16:59:40 10° ESE 17:01:39 12° E 17:02:28 12° E
MOS 1 Rocket 3.7 16:58:51 10° SE 17:03:41 48° ENE 17:08:45 10° N
CORIOLIS 4.1 16:59:59 10° SSE 17:05:19 84° ENE 17:10:42 10° NNW
NOSS 2-3 (D) 3.1 17:02:49 10° SW 17:06:30 86° SE 17:09:40 15° NE
SAR-Lupe-4 3.6 17:04:04 10° SSE 17:07:31 51° ENE 17:10:59 10° N
USA 81 4.4 17:03:01 10° N 17:08:02 42° ENE 17:13:00 10° SSE
NOSS 2-3 (E) 3.1 17:04:50 10° SW 17:08:29 85° NW 17:11:37 15° NE
IRS-1C 4.1 17:03:29 10° SSE 17:08:45 66° ENE 17:14:02 10° N
Meteor 2-10 4.3 17:03:26 10° N 17:08:45 51° ENE 17:14:11 10° SSE
Cosmos 1844 Rocket 3.7 17:04:58 10° NNW 17:09:39 26° NE 17:13:38 13° E
SPOT 1/Viking Rocket 4.0 17:07:32 10° SE 17:12:18 38° ENE 17:17:04 10° N
Cosmos 1980 Rocket 2.2 17:07:52 10° SSW 17:13:27 63° ESE 17:18:42 12° NE
Cosmos 1538 Rocket 4.0 17:08:19 10° NNW 17:13:39 82° ENE 17:19:00 10° SSE
Cosmos 2219 3.2 17:11:41 10° NNW 17:17:26 70° ENE 17:23:10 10° SE
Lacrosse 5 rocket 2.4 17:15:41 10° NW 17:18:42 23° N 17:20:00 19° NE
Cosmos-2242 3.4 17:14:48 10° SSE 17:18:44 38° E 17:22:14 13° NNE
Cosmos 2263 Rocket 2.3 17:13:26 10° NNW 17:19:09 83° WSW 17:24:50 10° SSE
Cosmos 2058 Rocket 3.4 17:16:02 10° SSE 17:20:17 44° E 17:24:33 10° NNE
Cosmos 1606 Rocket 3.9 17:17:22 10° SSW 17:21:46 67° WNW 17:26:12 10° N
SAR-Lupe-1 4.0 17:18:23 10° SSE 17:21:57 66° ENE 17:25:34 10° N
Cosmos 1655 Rocket 3.9 17:17:19 10° N 17:23:36 85° E 17:29:49 10° S
USA 238 DEB 3.5 17:24:19 10° SW 17:30:26 83° SE 17:35:42 18° NE
USA 238 3.5 17:24:19 10° SW 17:30:27 82° SE 17:35:43 18° NE
Cosmos 1933 4.4 17:27:41 10° SSW 17:31:19 42° WNW 17:34:59 10° N
Cosmos 372 Rocket 3.9 17:26:17 10° SSW 17:31:24 72° ESE 17:35:45 14° NNE
CZ-2D R/B 3.9 17:28:54 10° SE 17:32:45 38° ENE 17:36:34 10° N
Meteor 1-5 Rocket 4.5 17:28:26 10° NNW 17:33:48 69° W 17:39:17 10° S
Cosmos 1805 2.8 17:30:28 10° N 17:33:49 58° ENE 17:37:07 10° SSE
Meteor 1-26 Rocket 4.2 17:28:51 10° S 17:34:05 53° E 17:39:20 10° NNE
Thor Agena Rocket 4.5 17:29:14 10° S 17:34:16 51° WSW 17:39:17 10° NNW
USA 215 3.8 17:30:23 19° ENE 17:34:44 44° N 17:40:52 10° WNW
Cosmos 2369 3.9 17:30:15 10° S 17:35:48 54° ESE 17:39:37 20° NE
Meteor 2-2 Rocket 4.3 17:31:43 10° S 17:37:11 56° E 17:42:42 10° NNE
Resurs 1-3 4.0 17:34:32 10° SE 17:38:30 38° ENE 17:42:29 10° N
Cosmos 1898 Rocket 3.4 17:33:47 10° S 17:38:53 68° ESE 17:42:46 18° NNE
ERS-1 4.5 17:34:09 10° SSE 17:39:08 84° WSW 17:44:07 10° NNW
USA 308 3.9 17:37:05 10° S 17:39:40 21° SE 17:39:44 21° SE
SJ-6F 4.2 17:36:04 10° SSE 17:40:04 85° ENE 17:44:08 10° NNW
Cosmos 2227 Rocket 4.0 17:37:40 10° NW 17:42:41 34° WSW 17:47:41 10° SSW
Cosmos 1726 Rocket 4.3 17:38:24 10° SSW 17:42:56 56° WNW 17:47:25 10° N
Spot 4 Rocket 4.2 17:38:19 10° SE 17:43:12 48° ENE 17:48:08 10° N
COSMOS 2455 3.4 17:39:22 10° S 17:44:53 39° ESE 17:47:15 28° ENE
Meteor 2-20 4.5 17:39:04 10° S 17:45:14 86° W 17:51:25 10° N
Cosmos 2112 Rocket 4.2 17:41:07 10° NNW 17:46:08 46° ENE 17:50:58 11° SE
Cosmos 2360 Rocket 4.3 17:43:39 10° SE 17:43:42 10° SE 17:43:42 10° SE
SJ-12 4.4 17:43:46 10° S 17:47:28 56° W 17:51:13 10° NNW
Cosmos 44 Rocket 3.6 17:45:20 10° NNW 17:50:18 48° NE 17:52:18 32° E
Cosmos 1937 Rocket 3.4 17:46:00 10° S 17:51:06 65° ESE 17:53:59 26° NE
EXPRESS MD2 2.8 17:48:41 10° WSW 17:51:15 62° SSE 17:51:41 54° ESE
YAOGAN 1 2.6 17:47:58 10° SSE 17:52:05 52° ENE 17:56:15 10° N
Cosmos 1697 Rocket 3.9 17:47:03 10° WSW 17:52:15 38° NW 17:57:22 11° NNE
Cosmos 923 Rocket 3.8 17:49:35 10° NNW 17:54:48 82° ENE 17:59:59 10° SSE
PSLV R/B 3.5 17:53:23 10° SE 17:57:16 48° ENE 18:01:12 10° N
IRS-P3 4.4 17:52:21 10° S 17:57:38 71° WSW 18:02:58 10° NNW
SL-19 R/B 4.3 17:54:05 10° SE 17:59:27 59° ENE 18:05:10 10° N
Cosmos 494 Rocket 4.1 17:55:43 10° NNW 18:00:51 50° ENE 18:03:06 30° ESE
Nadezhda 2 Rocket 4.3 17:55:45 10° N 18:01:54 83° E 18:08:01 10° S
Cosmos 1553 Rocket 3.9 17:58:58 10° S 18:05:09 75° E 18:11:27 10° NNE
Meteor 2-20 Rocket 4.4 17:59:58 10° S 18:06:08 83° W 18:12:06 10° N
S3M 4.4 18:01:10 10° SSE 18:06:58 40° E 18:08:06 37° ENE
BREEZE-M DEB (TANK) 2.2 18:06:30 10° W 18:07:54 50° W 18:07:54 50° W
Cosmos 2333 Rocket 3.2 18:03:43 10° SSE 18:07:40 28° ESE 18:07:40 28° ESE
COSMO-SKYMED 1 2.5 18:09:00 53° ESE 18:09:00 53° ESE 18:12:42 10° S
GEOS 3 Rocket 3.8 18:09:30 31° NNE 18:12:10 75° NW 18:17:32 10° SW
Cosmos 2322 Rocket 3.7 18:08:43 10° SSE 18:11:02 20° SE 18:11:02 20° SE
SKYMED 2 3.5 18:11:39 32° NNE 18:13:39 88° W 18:17:59 10° SSW
Cosmos 1709 Rocket 4.1 18:10:14 10° N 18:16:06 46° ENE 18:17:15 41° ESE
OceanSat 1 rocket 4.4 18:11:56 10° SSE 18:16:38 70° ENE 18:21:19 10° N
SL-24 R/B - RUBIN 2 3.8 18:11:54 10° SSW 18:17:15 76° SE 18:18:13 57° ENE
Aureole 1 Rocket 4.5 18:13:34 10° SW 18:18:18 47° WNW 18:23:21 14° NNE
Okean 1 3.8 18:15:40 10° SSW 18:19:10 50° WNW 18:20:14 36° NNW
ARIANE 5 R/B 4.3 18:15:59 10° SSW 18:20:31 32° W 18:25:08 10° NNW
Cosmos 1745 Rocket 3.8 18:15:10 10° N 18:21:19 66° ENE 18:27:23 10° SSE
USA 59 Rocket 2.2 18:18:44 10° S 18:18:53 11° S 18:18:53 11° S
Cosmos 1680 Rocket 3.6 18:20:25 10° NNW 18:25:40 77° WSW 18:30:54 10° SSE
Cosmos 1844 3.5 18:21:41 10° NNW 18:27:17 70° ENE 18:28:18 56° ESE
Meteor 1-14 Rocket 4.1 18:23:34 10° N 18:29:20 81° ENE 18:34:57 10° SSE
Cosmos 2221 4.1 18:25:13 10° S 18:26:50 23° S 18:26:50 23° S
NOAA 6 3.9 18:28:10 10° SSE 18:33:16 88° ENE 18:38:24 10° NNW
Meteor 1-11 Rocket 4.2 18:28:56 10° N 18:33:22 45° NNE 18:33:22 45° NNE
Gbstr 26 Del rocket 3.8 18:32:28 10° WNW 18:35:18 39° NW 18:35:18 39° NW
IRAS Rocket 4.4 18:37:47 10° S 18:43:14 70° WSW 18:48:43 10° NNW
Cosmos 1417 Rocket 4.3 18:37:44 10° S 18:43:54 83° E 18:46:17 40° NNE
SL-16 R/B 2.1 18:39:04 10° SSW 18:44:22 70° SE 18:44:22 70° SE
CENTAUR R/B 4.1 18:40:01 10° NW 18:46:07 28° N 18:47:12 27° NNE
Cosmos 2227 4.3 18:40:34 10° NNW 18:46:13 72° WSW 18:48:37 35° S
Meteor 2-9 Rocket 4.1 18:42:11 10° NNW 18:46:55 71° N 18:46:55 71° N
Cosmos 2237 4.4 18:43:26 10° SW 18:49:08 67° WNW 18:50:29 50° N
Cosmos 1844 Rocket 2.8 18:48:25 10° NNW 18:54:05 72° WSW 18:55:22 53° S
Lacrosse 5 rocket 3.6 18:52:43 10° NW 18:53:35 16° NW 18:53:35 16° NW
Cosmos 1980 Rocket 3.8 18:53:01 10° WSW 18:57:50 28° NW 19:00:27 20° N
Cosmos 2278 4.2 19:05:46 10° SSW 19:10:08 55° SW 19:10:08 55° SW
USA 215 3.7 19:17:44 49° N 19:17:44 49° N 19:23:22 10° WNW
Cosmos 2360 Rocket 4.1 19:23:52 10° SSW 19:25:31 20° SSW 19:25:31 20° SSW
COSMOS 2455 3.6 19:24:55 10° WSW 19:30:24 48° WNW 19:30:24 48° WNW
Cosmos 2333 Rocket 3.9 19:47:01 10° SW 19:49:44 28° WSW 19:49:44 28° WSW
Cosmos 2322 Rocket 4.3 19:51:19 10° SW 19:52:53 19° SW 19:52:53 19° SW
